Temp
60 60 60 60 60 60 59 59 58 58 58 59 59 59 59 59 58 63 63 70 68 66 66 71 70 69 65 62 61 56 49 43 45 48 52 57 55 61 61 62 60 61 61 64 68
60 60 60 60 60 59 58 58 57 58 58 58 59 59 59 58 63 66 75 71 68 67 71 69 69 69 64 61 60 55 46 49 55 55 51 56 55 57 59 57 59 59 64 64 67
60 60 60 60 59 59 58 57 57 58 58 58 59 59 58 57 66 69 74 71 68 67 68 68 68 66 63 62 60 52 51 57 59 59 58 55 57 59 58 52 59 61 61 63 64
59 59 59 59 59 58 58 57 57 58 58 58 59 59 58 61 55 73 72 70 70 68 71 71 69 63 58 58 60 56 58 60 58 62 58 55 55 57 53 61 68 65 64 63 64
57 57 58 58 59 58 57 57 57 57 58 58 59 59 60 63 65 79 72 75 77 75 72 70 66 61 58 59 60 58 59 61 62 62 59 62 59 59 60 64 65 64 64 63 64
57 57 57 58 58 58 57 57 57 57 57 58 59 59 63 58 77 78 78 79 77 74 72 72 66 65 62 60 58 61 60 61 61 61 60 59 58 56 62 59 64 63 61 61 62
57 57 57 57 58 58 58 57 57 57 57 58 59 65 63 65 74 74 78 74 73 73 71 71 68 68 62 60 65 62 57 59 59 59 59 59 55 56 60 60 62 61 61 61 63
58 57 57 57 57 57 57 57 57 57 57 58 59 63 61 77 73 78 77 75 77 75 72 73 72 66 62 63 61 56 53 48 59 57 59 57 50 62 58 59 60 59 60 61 62
57 57 57 57 57 57 57 56 56 58 58 58 63 61 61 77 74 75 74 73 74 74 73 77 71 61 60 51 48 49 42 45 53 59 57 54 51 60 59 59 60 57 58 59 57
57 57 57 57 57 57 56 56 57 57 61 66 68 60 70 67 72 75 74 73 69 69 68 66 58 54 51 49 39 42 43 48 46 55 54 49 51 56 58 57 57 53 53 54 57
57 57 57 57 57 56 56 57 61 62 64 59 61 63 67 74 74 72 72 71 68 64 55 58 52 46 47 50 53 50 46 43 48 54 52 48 48 54 54 52 52 50 54 55 57
57 57 57 57 57 58 62 60 60 61 55 66 66 66 70 69 65 69 72 64 62 54 56 53 48 54 57 56 53 50 46 45 50 54 50 50 49 52 55 53 52 53 53 55 55
56 56 56 56 57 62 61 61 64 63 55 63 66 65 67 69 62 64 66 61 57 54 53 49 53 60 56 52 51 48 45 45 47 50 49 48 47 51 55 56 57 56 55 55 55
55 55 55 58 63 59 59 62 63 62 45 55 62 66 69 66 62 68 68 62 59 52 52 52 57 55 53 51 50 44 52 50 48 44 39 47 37 47 51 50 54 54 52 52 56
55 55 55 62 61 60 62 62 61 61 29 58 61 70 66 62 61 65 66 63 54 54 54 51 52 52 51 52 52 50 53 48 47 43 39 45 38 45 50 49 49 49 53 54 54
55 55 56 62 58 57 60 58 60 41 32 54 61 59 60 62 61 63 61 64 59 55 55 52 57 55 52 55 54 56 49 47 45 42 33 40 39 39 44 48 49 52 54 53 54
54 55 61 62 59 59 59 58 43 33 56 52 54 58 56 55 57 56 53 50 45 42 41 50 51 55 56 51 54 50 41 29 29 28 29 43 39 42 50 52 53 52 54 55 53
54 58 59 61 58 59 57 48 37 48 50 58 56 56 52 55 53 53 50 45 50 47 40 39 37 50 56 50 46 45 42 29 25 23 28 41 34 44 52 55 56 57 54 55 55
57 57 56 59 59 58 53 35 38 47 54 53 54 50 49 53 52 50 46 46 48 49 41 36 41 52 53 53 51 46 38 45 32 24 25 33 41 49 51 52 55 54 54 50 50
57 55 56 59 59 56 43 42 49 55 56 54 47 49 44 48 48 47 46 50 50 51 50 45 37 48 52 53 53 50 50 36 32 21 25 32 34 38 46 48 53 49 48 48 49
57 53 59 58 59 50 37 40 52 58 57 53 49 48 48 46 47 45 45 50 52 51 52 46 41 42 47 46 42 43 39 40 41 33 27 23 31 45 46 48 49 47 49 47 47
53 48 59 58 50 41 43 52 53 55 58 55 53 51 48 48 45 45 45 49 53 51 46 46 38 31 40 49 50 47 43 41 32 31 29 25 33 49 47 49 48 46 49 49 49
51 50 58 59 38 34 49 53 54 54 53 53 51 52 52 46 41 46 47 53 54 51 45 46 35 28 37 43 46 42 43 42 36 31 30 25 31 49 54 49 47 46 48 48 49
50 41 48 49 47 49 48 48 50 54 54 55 52 53 50 46 48 43 46 51 52 52 50 49 39 35 29 36 40 38 41 42 39 28 30 34 39 46 46 45 46 46 47 48 48
48 44 48 38 43 47 49 50 49 48 54 54 50 49 47 38 40 39 45 48 50 50 48 45 36 37 39 41 41 42 41 42 38 38 33 37 37 43 44 43 45 47 47 47 49
48 46 46 45 49 48 43 47 49 50 51 48 47 48 48 42 44 39 44 42 43 46 42 43 32 34 34 39 40 37 40 40 40 39 37 37 37 45 44 46 45 46 47 46 46
49 49 48 39 40 38 39 48 50 52 51 53 51 46 39 47 49 49 50 49 47 43 39 38 31 28 27 34 32 29 34 37 39 41 40 32 39 42 42 43 43 45 46 45 46
MSLP
1017.39 1017.33 1017.22 1017.36 1017.34 1017.13 1017.01 1016.87 1016.74 1016.83 1015.96 1016.14 1016.03 1015.01 1015.08 1014.48 1013.49 1013.66 1013.18 1012.33 1011.97 1011.84 1011.60 1011.26 1010.89 1010.80 1010.99 1011.68 1012.22 1012.90 1014.46 1015.60 1015.12 1014.89 1014.16 1013.34 1013.18 1012.83 1012.95 1013.43 1013.60 1013.83 1013.97 1013.63 1014.29
1017.04 1017.10 1017.09 1017.10 1016.90 1016.84 1016.78 1017.01 1017.06 1016.53 1015.98 1015.73 1015.49 1015.15 1014.95 1014.59 1014.25 1012.96 1011.81 1011.49 1011.53 1011.52 1011.40 1011.41 1011.15 1011.06 1011.56 1011.78 1012.60 1013.24 1014.62 1014.82 1014.27 1014.27 1014.15 1013.36 1013.09 1012.98 1013.36 1013.73 1013.94 1013.92 1013.83 1013.82 1014.52
1016.82 1016.75 1016.81 1016.62 1016.52 1016.68 1016.79 1016.62 1016.40 1015.96 1015.64 1015.59 1015.76 1015.43 1014.86 1015.12 1013.99 1012.67 1011.09 1011.24 1011.17 1011.52 1011.37 1011.37 1011.45 1011.58 1011.74 1012.12 1012.79 1013.49 1014.10 1014.04 1013.96 1013.74 1013.66 1013.43 1013.32 1013.27 1013.36 1013.81 1013.86 1014.01 1014.35 1014.43 1014.87
1016.52 1016.41 1016.36 1016.29 1016.38 1016.45 1016.40 1016.53 1016.32 1016.00 1016.07 1015.96 1015.61 1015.67 1014.88 1014.47 1013.72 1012.01 1011.37 1011.22 1011.38 1011.36 1011.69 1011.18 1011.40 1011.86 1012.34 1012.80 1013.03 1013.11 1013.47 1013.36 1013.12 1013.26 1013.48 1013.16 1013.05 1013.24 1013.15 1013.04 1012.93 1013.42 1013.91 1014.45 1014.95
1016.19 1016.14 1016.10 1016.13 1016.17 1016.21 1016.31 1016.26 1016.18 1016.12 1016.11 1015.90 1015.69 1014.95 1014.49 1013.94 1012.88 1011.57 1011.36 1011.18 1010.79 1011.44 1011.81 1011.37 1011.74 1012.47 1012.74 1012.99 1013.07 1012.99 1013.35 1012.78 1012.94 1012.87 1013.15 1013.20 1013.33 1013.26 1013.01 1012.78 1013.08 1013.58 1014.19 1014.49 1014.78
1016.00 1015.95 1015.94 1015.87 1015.89 1015.96 1016.01 1016.08 1016.03 1016.14 1016.11 1015.81 1015.32 1014.64 1014.37 1013.39 1011.86 1011.49 1011.34 1011.29 1011.42 1011.27 1011.80 1011.68 1012.37 1012.68 1012.90 1012.86 1013.21 1013.03 1013.32 1012.79 1013.14 1013.13 1013.34 1013.44 1013.46 1013.59 1012.71 1012.69 1013.15 1013.75 1014.19 1014.48 1014.75
1015.78 1015.70 1015.63 1015.73 1015.80 1015.66 1015.67 1015.86 1016.09 1016.17 1015.97 1015.69 1015.13 1014.55 1014.05 1012.84 1011.89 1011.85 1011.75 1011.76 1011.67 1011.57 1011.93 1011.92 1012.33 1012.50 1013.10 1013.07 1013.19 1013.00 1013.66 1013.61 1013.34 1013.33 1013.46 1013.50 1013.86 1013.49 1012.89 1013.06 1013.44 1013.74 1014.22 1014.53 1014.50
1015.59 1015.52 1015.48 1015.36 1015.34 1015.49 1015.63 1015.73 1015.76 1015.79 1015.63 1015.23 1014.90 1014.44 1013.75 1012.31 1012.05 1011.98 1012.03 1011.99 1011.80 1011.72 1011.77 1011.85 1012.05 1012.53 1013.41 1013.46 1014.02 1014.34 1014.65 1014.90 1014.11 1013.86 1013.80 1013.94 1013.85 1013.22 1013.09 1013.38 1013.52 1013.85 1014.26 1014.27 1014.43
1015.58 1015.39 1015.27 1015.31 1015.32 1015.33 1015.34 1015.55 1015.76 1015.65 1015.34 1015.07 1014.87 1014.80 1013.67 1012.35 1012.30 1012.31 1012.15 1012.28 1011.89 1011.73 1011.83 1011.93 1012.30 1013.67 1014.16 1015.01 1015.57 1015.87 1016.05 1015.78 1014.93 1014.51 1014.62 1014.57 1014.21 1013.32 1013.03 1013.44 1013.38 1013.62 1014.03 1014.33 1014.55
1015.46 1015.39 1015.35 1015.30 1015.24 1015.24 1015.35 1015.52 1015.71 1015.74 1015.29 1014.97 1015.04 1014.81 1013.54 1013.30 1012.73 1012.50 1012.37 1012.40 1012.54 1012.52 1012.72 1013.10 1014.15 1014.99 1015.83 1016.00 1016.96 1016.83 1016.60 1016.27 1015.88 1015.40 1014.98 1014.77 1014.53 1013.90 1013.39 1013.53 1013.38 1013.92 1014.47 1014.76 1014.88
1015.54 1015.39 1015.26 1015.08 1014.80 1014.76 1015.45 1016.18 1016.71 1016.01 1015.44 1015.43 1015.04 1014.54 1013.98 1013.49 1013.02 1013.00 1012.93 1012.80 1013.02 1013.44 1014.32 1014.78 1015.38 1016.01 1016.15 1016.20 1016.41 1016.53 1016.70 1016.76 1016.30 1015.72 1015.71 1015.39 1015.02 1014.05 1013.50 1013.46 1013.72 1014.40 1014.66 1014.96 1015.10
1015.45 1015.31 1015.16 1014.92 1014.62 1014.41 1014.47 1015.93 1016.34 1016.36 1015.86 1015.08 1014.64 1014.28 1013.89 1013.72 1013.70 1013.47 1013.25 1013.74 1014.10 1014.80 1015.08 1015.52 1015.82 1015.79 1015.96 1016.20 1016.44 1016.69 1016.73 1016.82 1016.46 1016.12 1016.39 1015.79 1015.29 1014.61 1014.23 1014.47 1014.72 1014.77 1015.21 1015.18 1015.46
1015.59 1015.25 1014.95 1014.70 1014.56 1014.69 1015.37 1016.07 1015.90 1015.99 1016.13 1015.40 1014.62 1014.16 1013.91 1013.90 1014.10 1014.07 1014.10 1014.44 1014.88 1015.40 1015.70 1015.85 1015.94 1015.85 1016.14 1016.66 1016.79 1016.83 1016.94 1017.15 1017.46 1016.95 1016.59 1016.39 1015.86 1015.31 1014.88 1014.78 1015.14 1015.38 1015.67 1015.93 1015.95
1015.54 1015.23 1014.86 1014.46 1014.86 1015.82 1016.06 1016.20 1016.14 1016.21 1016.77 1016.06 1014.75 1014.00 1013.92 1014.03 1014.39 1014.32 1014.37 1014.87 1015.31 1015.89 1016.08 1016.31 1016.19 1016.25 1016.57 1016.82 1017.11 1017.14 1016.93 1017.40 1017.73 1018.07 1017.66 1017.25 1017.09 1016.20 1015.70 1015.52 1015.63 1015.98 1016.23 1016.29 1016.03
1015.43 1015.24 1014.98 1014.43 1015.55 1016.06 1016.54 1016.28 1016.17 1016.44 1017.27 1016.26 1014.84 1013.96 1014.13 1014.62 1015.01 1015.22 1015.25 1015.07 1015.97 1016.33 1016.74 1016.88 1016.60 1016.78 1016.92 1017.08 1017.14 1017.28 1017.13 1017.70 1018.01 1018.56 1018.63 1018.30 1018.04 1017.18 1016.12 1015.93 1015.98 1016.15 1016.19 1015.94 1015.76
1015.58 1015.43 1015.29 1015.41 1016.03 1016.47 1016.35 1016.19 1016.63 1017.45 1017.29 1016.22 1015.08 1014.70 1014.92 1015.24 1015.78 1016.24 1016.38 1016.10 1016.68 1017.09 1017.39 1017.54 1017.02 1017.10 1017.15 1017.19 1017.37 1017.55 1017.73 1018.37 1018.96 1019.52 1019.89 1019.42 1018.92 1018.29 1017.00 1016.48 1016.28 1016.10 1016.00 1016.17 1016.15
1015.64 1015.48 1015.40 1015.88 1016.48 1016.33 1016.33 1016.99 1017.86 1018.32 1017.38 1016.78 1015.96 1015.69 1016.01 1016.48 1016.99 1017.52 1018.14 1018.28 1018.86 1018.95 1019.38 1018.84 1018.30 1017.80 1017.52 1017.72 1017.85 1018.38 1018.97 1020.07 1021.17 1021.36 1021.39 1020.11 1019.36 1018.29 1017.13 1016.53 1016.33 1016.42 1016.56 1016.39 1016.38
1015.62 1015.46 1016.03 1016.27 1016.37 1016.30 1016.83 1018.07 1018.62 1018.64 1017.81 1017.01 1016.63 1016.53 1017.00 1017.34 1018.11 1018.50 1019.08 1019.93 1019.99 1020.23 1020.58 1020.41 1019.43 1018.76 1018.37 1018.56 1018.83 1019.35 1020.29 1021.73 1022.98 1023.90 1022.95 1020.85 1019.89 1018.23 1017.25 1016.82 1016.76 1016.65 1016.88 1016.92 1016.80
1015.61 1016.20 1016.65 1016.67 1016.43 1016.56 1017.68 1019.00 1019.35 1018.96 1018.05 1017.55 1017.34 1017.65 1018.10 1018.14 1018.47 1019.20 1020.11 1020.72 1020.97 1020.87 1021.19 1021.14 1020.29 1019.40 1019.05 1018.90 1019.15 1019.76 1020.90 1021.94 1023.54 1025.24 1024.95 1022.35 1020.38 1018.62 1017.76 1017.54 1017.54 1017.59 1017.40 1017.84 1018.22
1016.21 1016.88 1017.16 1016.66 1016.54 1017.26 1018.78 1019.56 1019.17 1018.43 1017.95 1017.80 1018.08 1018.44 1018.94 1019.18 1019.34 1019.85 1020.59 1021.00 1021.02 1021.06 1021.15 1021.80 1021.54 1020.51 1019.68 1019.31 1019.54 1019.97 1021.12 1022.34 1023.91 1025.69 1025.55 1023.23 1021.20 1019.37 1018.41 1018.32 1017.77 1018.14 1018.42 1018.83 1018.94
1016.49 1017.28 1017.08 1016.73 1016.75 1018.01 1019.91 1019.81 1019.01 1018.33 1018.05 1018.27 1018.50 1018.97 1019.44 1019.70 1019.99 1020.50 1021.05 1021.12 1020.94 1021.16 1021.36 1022.01 1022.44 1021.67 1020.90 1020.74 1020.72 1021.00 1022.02 1023.27 1024.44 1025.60 1025.54 1024.29 1021.77 1019.26 1019.13 1019.10 1018.91 1019.18 1019.24 1019.29 1019.35
1017.23 1018.16 1017.17 1016.89 1018.06 1019.71 1020.05 1019.37 1018.94 1018.72 1018.33 1018.53 1018.91 1019.39 1019.89 1020.30 1020.76 1020.94 1021.10 1020.96 1020.85 1021.24 1022.00 1022.63 1023.28 1023.25 1022.63 1021.60 1021.29 1021.58 1022.89 1023.78 1025.20 1025.99 1025.81 1024.89 1021.75 1019.36 1019.45 1019.45 1019.45 1019.66 1019.58 1019.47 1019.36
1018.48 1018.64 1017.51 1017.13 1019.44 1020.83 1020.11 1019.75 1019.36 1019.07 1019.10 1019.18 1019.61 1019.88 1020.27 1020.95 1021.40 1021.34 1021.39 1021.32 1021.34 1021.72 1022.24 1022.92 1024.02 1024.37 1023.41 1022.76 1022.05 1022.54 1023.14 1023.96 1025.14 1025.71 1025.60 1024.89 1021.77 1019.57 1019.12 1019.74 1019.99 1020.01 1019.78 1019.66 1019.37
1019.20 1019.80 1019.22 1019.33 1020.50 1020.47 1020.42 1020.11 1019.76 1019.35 1019.42 1019.66 1020.17 1020.29 1020.91 1021.54 1021.72 1022.04 1022.14 1022.06 1022.02 1022.21 1022.61 1023.21 1024.56 1025.14 1025.22 1024.53 1023.94 1023.39 1023.49 1023.80 1024.62 1025.27 1024.72 1023.34 1021.58 1020.61 1020.36 1020.35 1020.21 1020.08 1019.84 1019.66 1019.37
1019.75 1020.87 1020.85 1022.04 1021.46 1020.93 1020.57 1020.34 1020.09 1019.86 1019.86 1020.18 1020.91 1021.21 1021.47 1022.15 1022.45 1022.78 1022.84 1022.75 1022.66 1022.92 1023.39 1024.22 1025.32 1025.53 1025.44 1025.08 1024.58 1023.63 1023.38 1023.12 1023.74 1023.54 1023.95 1022.26 1021.73 1020.76 1020.52 1020.61 1020.45 1020.20 1019.97 1019.71 1019.15
1019.99 1020.68 1021.40 1021.96 1021.78 1021.48 1021.43 1020.93 1020.45 1020.38 1020.43 1020.87 1021.37 1021.83 1021.96 1022.42 1022.72 1023.12 1023.37 1023.60 1023.69 1023.81 1024.46 1025.32 1026.03 1026.39 1025.86 1025.43 1024.72 1023.64 1022.79 1022.78 1022.58 1022.38 1022.34 1021.87 1021.25 1020.32 1020.52 1020.61 1020.57 1020.24 1019.90 1019.55 1019.14
1020.05 1020.31 1020.75 1022.68 1022.65 1022.42 1022.23 1021.18 1020.84 1020.66 1021.04 1021.04 1021.58 1022.22 1022.56 1022.70 1022.91 1023.18 1023.52 1023.76 1023.92 1024.54 1025.40 1026.32 1027.23 1027.99 1027.43 1026.67 1025.41 1023.56 1021.88 1021.75 1021.80 1021.58 1021.60 1021.64 1020.75 1020.56 1020.62 1020.52 1020.22 1019.70 1019.58 1019.15 1018.56
Wind_Speed
10 11 10 11 10 10 8 9 9 10 8 10 13 14 16 16 18 4 1 5 2 3 2 7 2 3 3 4 3 4 8 3 1 1 4 5 2 5 2 6 1 3 5 4 9
10 10 11 11 9 7 7 8 8 8 7 10 13 15 17 13 4 3 7 6 4 2 4 6 8 8 4 4 3 7 6 6 3 2 3 4 3 2 4 3 4 2 4 3 9
10 9 9 9 8 8 9 7 7 7 8 10 13 15 16 8 2 5 8 9 2 4 2 0 2 1 6 5 5 2 4 3 4 5 5 2 1 1 6 2 5 8 7 6 5
7 7 7 8 8 9 7 7 5 5 8 10 14 16 15 4 4 6 7 9 6 6 2 5 7 5 5 6 5 7 1 5 2 5 3 2 1 1 2 6 9 12 11 7 8
7 8 8 9 10 8 8 5 4 5 8 11 15 14 2 4 1 5 9 9 4 1 7 6 10 4 5 3 2 4 2 2 2 1 1 2 4 3 6 6 4 6 7 10 9
5 6 7 7 7 8 7 4 3 6 8 11 13 13 3 5 5 8 10 8 6 6 9 8 3 1 3 2 3 1 3 5 3 4 2 2 3 1 6 2 8 9 11 9 9
4 4 4 5 7 5 4 4 5 6 8 9 9 2 3 4 3 6 6 4 4 4 5 3 1 7 2 4 5 3 5 6 2 3 5 5 6 7 3 3 9 10 8 9 11
4 3 3 2 2 4 5 6 6 8 8 5 6 3 2 5 5 6 6 5 7 4 2 5 4 3 3 2 7 6 6 6 7 1 4 4 10 11 2 5 11 10 9 9 10
5 5 5 2 4 5 6 5 7 6 3 5 4 3 3 9 5 4 4 5 7 4 6 2 5 3 7 5 6 8 1 3 6 5 4 3 8 10 5 6 11 8 9 6 4
7 6 4 2 4 7 8 8 10 7 1 1 1 4 7 5 4 5 6 4 3 6 7 9 6 5 5 7 1 3 3 4 4 6 7 5 9 11 8 6 9 5 4 2 3
6 4 3 3 3 3 10 3 5 7 8 1 2 3 3 7 3 6 5 6 5 8 5 5 7 2 2 1 4 1 2 2 4 4 7 5 9 13 8 5 5 6 8 7 6
6 5 3 3 4 4 4 7 3 3 3 3 1 2 1 1 5 7 6 6 6 3 3 7 3 1 4 5 4 2 2 4 6 5 2 7 10 8 7 4 4 9 7 8 6
7 8 6 6 3 5 6 5 2 3 4 5 2 1 3 3 2 5 4 1 4 4 4 5 1 4 4 5 6 4 2 3 5 7 1 6 6 6 5 5 6 5 5 5 7
8 8 8 6 9 1 3 3 2 3 6 6 5 4 3 1 5 3 4 2 7 2 1 1 2 3 5 3 1 4 2 2 6 4 2 4 4 5 4 2 3 6 4 4 6
9 9 7 8 6 4 0 3 1 5 7 5 2 2 1 3 1 9 4 3 2 3 5 2 3 6 6 4 2 7 7 4 2 3 2 9 5 7 5 2 0 2 4 5 4
9 7 1 6 4 0 2 2 5 10 1 2 1 1 3 6 5 4 8 7 3 5 6 4 2 3 2 3 4 8 4 5 4 3 3 1 3 7 4 5 1 3 3 1 5
8 7 5 2 2 3 2 5 7 7 3 1 1 3 3 4 6 5 6 11 6 6 7 7 4 5 3 5 6 9 7 5 7 7 5 1 2 6 4 4 2 1 3 6 4
6 5 4 2 2 2 4 7 7 4 1 3 3 3 4 5 5 6 3 5 6 5 3 4 7 5 6 1 3 3 4 5 3 1 6 6 3 5 1 4 6 1 2 3 6
4 3 3 4 3 3 7 7 7 6 2 2 4 4 5 5 4 4 4 3 3 5 4 4 4 5 1 3 2 4 5 2 7 2 3 4 6 5 5 6 5 5 7 7 8
3 3 3 5 2 6 8 3 1 1 1 3 3 1 2 5 4 4 3 3 3 6 2 3 4 3 6 2 5 6 2 5 5 3 3 6 7 6 5 8 14 7 6 5 5
5 5 4 4 4 7 5 4 2 3 2 3 2 3 2 1 3 2 0 2 2 3 6 2 3 7 3 5 1 5 5 5 4 3 3 3 8 5 6 7 11 5 4 3 0
4 4 4 2 6 1 2 2 2 5 7 5 5 4 3 3 4 3 2 2 1 1 3 2 4 3 3 7 4 4 6 5 5 4 3 3 9 3 2 6 5 2 5 6 3
4 1 3 5 4 3 2 4 3 4 5 3 3 3 4 2 4 2 2 4 4 3 1 2 3 4 8 7 4 4 3 3 4 3 6 4 7 3 15 7 3 5 6 6 6
4 4 6 6 0 6 4 2 4 3 4 5 4 5 4 5 6 2 5 5 7 3 7 6 2 6 6 6 5 10 5 3 6 3 4 12 19 16 10 4 7 7 7 8 8
4 2 3 1 5 3 4 2 3 2 3 6 5 4 3 3 3 2 3 5 4 3 3 4 2 3 6 7 6 15 13 17 9 11 7 10 11 13 6 5 7 7 7 9 13
5 5 3 2 2 3 4 1 4 2 2 2 6 1 4 4 4 2 1 1 5 3 3 2 4 3 5 7 10 16 14 12 14 11 9 10 11 5 2 5 7 9 11 11 10
0 2 6 5 3 5 2 1 2 4 5 4 7 4 2 4 4 4 5 4 5 4 4 2 5 3 6 6 9 7 8 5 4 5 6 6 8 2 6 8 8 11 9 11 12
Wind_Direction
273 269 269 266 267 273 290 300 314 306 332 319 309 320 306 313 314 119 332 226 234 252 296 295 347 352 80 85 98 126 64 74 138 138 274 312 74 340 88 99 338 4 148 216 131
268 258 256 259 265 283 291 282 276 299 323 324 310 307 302 328 291 344 238 247 233 221 332 9 343 355 32 55 39 77 91 197 203 183 224 325 50 318 73 29 15 26 22 114 131
260 257 253 259 266 269 267 284 290 323 326 307 296 294 297 308 44 300 289 331 300 188 211 326 236 9 51 38 4 141 140 185 228 227 192 186 315 277 131 87 207 185 188 169 156
258 259 257 259 261 260 272 267 285 315 293 292 292 282 288 237 101 269 329 321 333 163 322 33 26 46 69 45 335 76 213 193 188 175 171 196 175 267 179 219 202 194 175 167 173
266 253 252 249 251 256 260 270 290 298 286 283 280 293 303 27 291 281 340 339 36 36 54 39 43 38 50 7 26 79 276 230 323 286 237 9 283 270 255 216 198 179 174 177 191
265 256 244 242 251 252 254 273 307 277 272 277 287 300 46 62 276 349 347 344 5 40 12 37 33 342 74 52 104 291 314 315 295 267 280 195 270 300 266 227 180 172 195 200 197
270 258 254 244 238 260 295 284 255 252 254 262 300 343 47 228 336 335 354 329 355 39 354 5 133 68 313 9 346 35 354 335 265 232 234 150 311 237 279 194 212 188 192 208 213
334 312 277 282 290 263 248 238 237 230 233 260 295 49 257 282 313 32 349 328 346 12 21 321 34 80 33 327 14 43 45 6 317 79 22 100 260 272 262 196 234 213 193 205 217
0 1 352 307 246 238 244 228 214 214 198 267 35 44 330 316 29 314 47 332 318 7 332 326 56 63 26 55 17 14 356 317 320 57 9 198 268 260 310 241 248 201 201 209 268
20 11 356 296 217 202 179 170 183 168 242 78 118 44 343 323 329 347 342 2 350 343 15 41 44 59 30 49 231 285 348 322 271 311 348 300 269 278 273 227 247 160 146 191 224
21 16 350 292 304 29 125 143 14 356 35 62 290 150 320 301 2 331 357 350 25 50 24 3 64 65 329 269 233 213 201 260 270 295 352 288 284 289 302 56 83 120 137 123 96
14 7 356 355 356 337 73 81 143 180 13 329 304 2 280 120 21 325 19 55 45 34 352 25 71 283 108 46 55 6 325 307 293 287 1 327 305 335 32 32 27 129 131 127 89
7 0 350 353 325 35 76 101 34 103 97 317 299 330 297 48 329 303 45 24 58 40 8 131 232 60 82 35 22 316 206 273 254 323 270 333 333 1 11 58 55 41 54 58 142
7 359 352 348 48 291 51 14 30 101 74 306 345 324 23 55 358 332 27 90 21 67 77 84 7 69 61 41 76 317 217 281 297 24 260 44 285 13 339 77 80 36 74 169 168
6 0 13 54 149 71 311 345 74 62 67 271 301 248 0 90 271 340 345 23 71 315 79 270 33 49 52 316 338 255 310 273 231 188 67 346 66 291 333 330 136 90 182 183 127
0 351 123 31 49 21 323 45 50 47 11 355 46 14 53 10 22 25 20 34 64 62 23 4 16 58 306 339 329 295 1 40 52 87 33 134 114 313 327 281 6 236 220 230 221
353 0 90 100 178 322 40 48 43 96 278 359 64 67 86 12 35 50 41 36 39 29 6 343 358 325 33 11 353 16 33 2 6 8 225 357 53 230 291 290 242 148 220 241 300
355 39 3 71 345 49 55 51 76 266 0 0 32 53 74 30 9 19 57 28 9 52 62 47 336 11 334 72 264 344 82 135 191 302 285 332 149 239 218 326 34 167 352 303 349
95 22 42 325 3 63 72 59 187 207 284 42 51 72 358 3 114 75 63 45 38 9 70 24 289 324 248 306 77 332 34 175 100 15 31 287 301 282 215 45 62 276 292 16 24
82 60 345 315 37 63 73 165 104 252 15 74 109 52 114 347 55 74 33 319 356 30 126 355 318 345 295 25 24 89 136 32 14 49 305 302 281 239 310 341 357 337 73 54 23
59 58 265 329 67 50 117 214 99 34 71 56 83 80 69 94 51 75 131 301 336 20 61 67 104 293 344 19 310 2 24 42 110 129 217 297 261 223 353 6 316 74 45 19 67
88 57 297 39 54 21 103 90 8 358 28 56 85 85 91 43 41 81 129 197 242 0 50 350 133 305 264 284 273 121 147 113 123 274 235 172 265 331 205 14 99 42 359 347 328
84 233 311 81 107 338 278 61 80 41 31 57 60 64 56 76 90 69 130 27 34 3 134 172 358 3 348 342 0 103 152 125 96 72 208 210 263 252 340 360 11 341 325 312 291
83 45 336 45 91 121 113 83 101 37 57 69 56 65 74 38 19 79 32 1 358 20 68 77 133 162 201 231 251 290 226 244 173 183 235 241 276 288 301 285 315 320 307 300 286
46 237 183 299 346 88 82 84 110 94 62 34 32 51 120 93 37 65 20 336 337 19 70 91 232 235 234 256 266 270 278 289 258 239 224 275 275 280 242 274 289 285 282 277 284
122 126 21 70 343 78 12 32 139 104 71 26 120 68 76 134 164 210 166 225 240 3 85 27 272 321 297 259 265 277 274 256 268 284 251 259 273 271 280 270 278 275 282 282 279
222 45 100 304 45 73 239 168 121 108 11 146 146 115 93 187 188 223 205 220 223 191 171 195 144 103 266 349 321 307 236 211 241 234 205 243 247 260 293 283 265 282 287 288 303